Staples, MN

8:39 PM CDT on September 26, 2016 (GMT -0500)
Staples Municipal

Weather History for KSAZ - December, 2012

Change the Weather History Date:

Monday, December 10, 2012

  Actual Average Record
Temperature  
Mean Temperature -3 °F -  
Max Temperature 10 °F 27 °F 46 °F (2002)
Min Temperature -16 °F 12 °F -18 °F (2000)
Degree Days  
Heating Degree Days 68    
Moisture  
Dew Point -6 °F    
Average Humidity 80    
Maximum Humidity 92    
Minimum Humidity 62    
Precipitation  
Precipitation 0.00 in - - ()
Sea Level Pressure  
Sea Level Pressure 29.88 in    
Wind  
Wind Speed 6 mph (SW)    
Max Wind Speed 12 mph    
Max Gust Speed -    
Visibility 10 miles    
Events      
Averages and records for this station are not official NWS values.
T = Trace of Precipitation, MM = Missing Value Source: NWS Daily Summary

Daily Weather History Graph

Daily Weather History Graph

Search for Another Location

Airport or City:

Trip Planner

Search our weather history database for the weather conditions in past years. The results will help you decide how hot, cold, wet, or windy it might be!

Date:

Astronomy

Dec. 10, 2012 Rise Set
Actual Time 7:52 AM CST 4:32 PM CST
Civil Twilight 7:17 AM CST 5:07 PM CST
Nautical Twilight 6:39 AM CST 5:45 PM CST
Astronomical Twilight 6:02 AM CST 6:21 PM CST
Moon 4:29 AM CST (12/10) 2:27 PM CST (12/10)
Length of Visible Light 9h 49m
Length of Day
8h 40m
Waning Crescent, 10% of the Moon is Illuminated
Dec 10
Waning Crescent
Dec 13
New
Dec 19
First Quarter
Dec 28
Full
Jan 4
Last Quarter

Hourly Weather History & Observations

Time (CST) Temp. Windchill Dew Point Humidity Pressure Visibility Wind Dir Wind Speed Gust Speed Precip Events Conditions
12:13 AM 3.2 °F -11.3 °F -0.4 °F 85% 30.02 in 10.0 mi NNW 9.2 mph - N/A   Overcast
12:33 AM 3.2 °F -13.1 °F -0.4 °F 85% 30.01 in 10.0 mi NNW 11.5 mph - N/A   Overcast
12:54 AM 3.2 °F -13.1 °F -0.4 °F 85% 30.01 in 10.0 mi NNW 11.5 mph - N/A   Overcast
1:13 AM 3.2 °F -13.1 °F -0.4 °F 85% 30.01 in 10.0 mi NNW 11.5 mph - N/A   Overcast
1:33 AM 1.4 °F -14.5 °F -2.2 °F 85% 30.01 in 10.0 mi NNW 10.4 mph - N/A   Overcast
1:54 AM 1.4 °F -12.5 °F -2.2 °F 85% 30.00 in 10.0 mi NNW 8.1 mph - N/A   Mostly Cloudy
2:13 AM -0.4 °F -13.4 °F -4.0 °F 85% 30.00 in 10.0 mi NNW 6.9 mph - N/A   Scattered Clouds
2:53 AM -5.8 °F -18.4 °F -7.6 °F 92% 29.99 in 10.0 mi NW 5.8 mph - N/A   Clear
3:13 AM -7.6 °F -22.1 °F -9.4 °F 92% 29.98 in 10.0 mi NW 6.9 mph - N/A   Clear
3:34 AM -5.8 °F -19.9 °F -7.6 °F 92% 29.99 in 10.0 mi WNW 6.9 mph - N/A   Clear
3:53 AM -7.6 °F -22.1 °F -9.4 °F 92% 29.99 in 10.0 mi WNW 6.9 mph - N/A   Clear
4:13 AM -7.6 °F -20.6 °F -11.2 °F 84% 29.98 in 10.0 mi NW 5.8 mph - N/A   Clear
4:34 AM -9.4 °F -22.7 °F -11.2 °F 92% 29.98 in 10.0 mi NW 5.8 mph - N/A   Clear
4:53 AM -9.4 °F -20.9 °F -11.2 °F 92% 29.98 in 10.0 mi NW 4.6 mph - N/A   Clear
5:13 AM -13.0 °F -22.7 °F -16.6 °F 84% 29.97 in 10.0 mi WNW 3.5 mph - N/A   Clear
5:34 AM -9.4 °F -20.9 °F -13.0 °F 84% 29.97 in 10.0 mi WNW 4.6 mph - N/A   Clear
5:53 AM -11.2 °F - -14.8 °F 84% 29.96 in 10.0 mi Calm Calm - N/A   Clear
6:13 AM -14.8 °F - -18.4 °F 84% 29.95 in 10.0 mi Calm Calm - N/A   Clear
6:34 AM -14.8 °F -27.2 °F -16.6 °F 92% 29.95 in 10.0 mi WNW 4.6 mph - N/A   Clear
6:53 AM -14.8 °F -24.8 °F -16.6 °F 92% 29.94 in 10.0 mi West 3.5 mph - N/A   Clear
7:13 AM -14.8 °F - -18.4 °F 84% 29.94 in 10.0 mi Calm Calm - N/A   Clear
7:34 AM -14.8 °F -24.8 °F -18.4 °F 84% 29.93 in 10.0 mi WNW 3.5 mph - N/A   Clear
7:53 AM -16.6 °F -29.3 °F -20.2 °F 84% 29.93 in 10.0 mi West 4.6 mph - N/A   Clear
8:13 AM -16.6 °F -26.8 °F -20.2 °F 84% 29.94 in 10.0 mi West 3.5 mph - N/A   Clear
8:34 AM -14.8 °F -27.2 °F -18.4 °F 84% 29.94 in 10.0 mi West 4.6 mph - N/A   Clear
8:53 AM -13.0 °F - -16.6 °F 84% 29.93 in 10.0 mi Calm Calm - N/A   Clear
9:13 AM -9.4 °F - -14.8 °F 77% 29.93 in 10.0 mi Calm Calm - N/A   Clear
9:34 AM -7.6 °F -20.6 °F -11.2 °F 84% 29.94 in 10.0 mi West 5.8 mph - N/A   Clear
9:53 AM -7.6 °F -16.5 °F -9.4 °F 92% 29.94 in 10.0 mi WNW 3.5 mph - N/A   Clear
10:13 AM -5.8 °F -14.5 °F -9.4 °F 84% 29.94 in 10.0 mi WNW 3.5 mph - N/A   Clear
10:34 AM -4.0 °F - -7.6 °F 85% 29.93 in 10.0 mi Calm Calm - N/A   Clear
10:53 AM -4.0 °F - -7.6 °F 85% 29.92 in 10.0 mi Calm Calm - N/A   Clear
11:14 AM -2.2 °F - -5.8 °F 85% 29.91 in 10.0 mi Calm Calm - N/A   Clear
11:33 AM -0.4 °F - -5.8 °F 78% 29.90 in 10.0 mi Calm Calm - N/A   Clear
11:54 AM 1.4 °F - -4.0 °F 78% 29.89 in 10.0 mi Calm Calm - N/A   Clear
12:13 PM 1.4 °F - -5.8 °F 72% 29.87 in 10.0 mi Calm Calm - N/A   Clear
12:33 PM 3.2 °F - -5.8 °F 66% 29.87 in 10.0 mi Calm Calm - N/A   Clear
12:54 PM 5.0 °F - -4.0 °F 66% 29.86 in 10.0 mi Calm Calm - N/A   Clear
1:13 PM 6.8 °F -0.1 °F -2.2 °F 67% 29.85 in 10.0 mi South 3.5 mph - N/A   Clear
1:33 PM 6.8 °F - -2.2 °F 67% 29.85 in 10.0 mi Calm Calm - N/A   Clear
1:54 PM 8.6 °F - -0.4 °F 67% 29.84 in 10.0 mi Calm Calm - N/A   Clear
2:13 PM 8.6 °F - -0.4 °F 67% 29.83 in 10.0 mi Calm Calm - N/A   Clear
2:33 PM 10.4 °F 4.0 °F -0.4 °F 62% 29.83 in 10.0 mi WSW 3.5 mph - N/A   Clear
2:53 PM 8.6 °F 0.1 °F -0.4 °F 67% 29.83 in 10.0 mi South 4.6 mph - N/A   Clear
3:13 PM 8.6 °F 0.1 °F -0.4 °F 67% 29.83 in 10.0 mi South 4.6 mph - N/A   Clear
3:33 PM 8.6 °F -1.3 °F -0.4 °F 67% 29.82 in 10.0 mi South 5.8 mph - N/A   Clear
3:54 PM 8.6 °F 0.1 °F -0.4 °F 67% 29.82 in 10.0 mi South 4.6 mph - N/A   Clear
4:13 PM 8.6 °F 2.0 °F -2.2 °F 62% 29.81 in 10.0 mi SSE 3.5 mph - N/A   Clear
4:33 PM 6.8 °F -0.1 °F -0.4 °F 72% 29.81 in 10.0 mi SSE 3.5 mph - N/A   Clear
4:54 PM 6.8 °F -2.0 °F -0.4 °F 72% 29.81 in 10.0 mi SSE 4.6 mph - N/A   Clear
5:13 PM 3.2 °F - -2.2 °F 78% 29.81 in 10.0 mi Calm Calm - N/A   Clear
5:33 PM 5.0 °F -4.1 °F -2.2 °F 72% 29.80 in 10.0 mi SSE 4.6 mph - N/A   Clear
5:54 PM 3.2 °F -6.2 °F -2.2 °F 78% 29.80 in 10.0 mi SSE 4.6 mph - N/A   Clear
6:13 PM 5.0 °F -5.6 °F -2.2 °F 72% 29.80 in 10.0 mi SSE 5.8 mph - N/A   Clear
6:33 PM 3.2 °F -7.8 °F -2.2 °F 78% 29.79 in 10.0 mi SSE 5.8 mph - N/A   Clear
6:54 PM 3.2 °F -6.2 °F -2.2 °F 78% 29.79 in 10.0 mi SSE 4.6 mph - N/A   Clear
7:13 PM 3.2 °F -6.2 °F -0.4 °F 85% 29.78 in 10.0 mi SSE 4.6 mph - N/A   Mostly Cloudy
7:33 PM 3.2 °F -4.2 °F -0.4 °F 85% 29.78 in 10.0 mi SE 3.5 mph - N/A   Overcast
7:53 PM 3.2 °F -7.8 °F -0.4 °F 85% 29.78 in 10.0 mi SSE 5.8 mph - N/A   Overcast
8:13 PM 3.2 °F -7.8 °F -0.4 °F 85% 29.78 in 10.0 mi SSE 5.8 mph - N/A   Overcast
8:53 PM 3.2 °F -6.2 °F -0.4 °F 85% 29.78 in 10.0 mi South 4.6 mph - N/A   Overcast
9:14 PM 3.2 °F -7.8 °F -0.4 °F 85% 29.77 in 10.0 mi SSE 5.8 mph - N/A   Overcast
9:33 PM 5.0 °F -6.9 °F -0.4 °F 78% 29.76 in 10.0 mi South 6.9 mph - N/A   Overcast
9:53 PM 5.0 °F -6.9 °F -0.4 °F 78% 29.76 in 10.0 mi South 6.9 mph - N/A   Overcast
10:14 PM 5.0 °F -6.9 °F -0.4 °F 78% 29.76 in 10.0 mi South 6.9 mph - N/A   Overcast
10:33 PM 5.0 °F -6.9 °F -0.4 °F 78% 29.75 in 10.0 mi South 6.9 mph - N/A   Overcast
10:53 PM 5.0 °F -6.9 °F -0.4 °F 78% 29.74 in 7.0 mi South 6.9 mph - N/A   Overcast
11:13 PM 3.2 °F -9.1 °F -0.4 °F 85% 29.74 in 10.0 mi South 6.9 mph - N/A   Overcast
11:33 PM 3.2 °F -7.8 °F -0.4 °F 85% 29.74 in 10.0 mi South 5.8 mph - N/A   Overcast
11:53 PM 3.2 °F -9.1 °F -0.4 °F 85% 29.73 in 7.0 mi South 6.9 mph - N/A   Overcast